Regional Weather Roundup
Issued by NWS Upton, NY

Current Version | Previous Version | Graphics & Text | Print | Product List | Glossary Off
Versions: 1 2 3 4 5 6 7 8 9 10 11 12 13 14 15 16 17 18 19 20 21 22 23 24 25 26 27 28 29 30 31 32 33 34 35 36 37 38 39 40 41 42 43 44 45 46 47 48 49 50

000
ASUS41 KOKX 051505
RWROKX

REGIONAL WEATHER ROUNDUP
NATIONAL WEATHER SERVICE NEW YORK NY
1000 AM EST THU MAR 05 2015

NOTE: "FAIR" INDICATES FEW OR NO CLOUDS BELOW 12,000 FEET WITH NO
SIGNIFICANT WEATHER AND/OR OBSTRUCTIONS TO VISIBILITY.

NYZ071-072-176-178-NJZ106-104-051600-
NEW YORK CITY METRO AREA


CITY           SKY/WX    TMP DP  RH WIND       PRES   REMARKS
CENTRAL PARK   SNOW      26  23  88 NE9G16    30.15R VSB 1/4 WCI  17
LAGUARDIA APRT SNOW      27  24  89 NE12      30.14R VSB 1/4 WCI  17
KENNEDY INTL   LGT SNOW  28  24  85 N18       30.15R VSB 3/4 WCI  15
NEWARK/LIBERTY LGT SNOW  28  26  92 N21G26    30.14R VSB 3/4 WCI  15
BRNX BOT. GARD   N/A    N/A N/A N/A NE3       30.15R
TETERBORO      SNOW      27  25  93 N5        30.13R VSB 1/2 WCI  21
$$

NYZ177-179-078>081-051600-
LONG ISLAND NEW YORK

CITY           SKY/WX    TMP DP  RH WIND       PRES   REMARKS
FARMINGDALE    SNOW      26  23  88 N14       30.13R VSB 1/2 WCI  14
ISLIP          LGT SNOW  26  24  92 N14       30.10R VSB 1   WCI  14
SHIRLEY        SNOW      26  24  92 N15G22    30.13R VSB 1/2 WCI  14
WESTHAMPTON    SNOW      27  24  89 N14G24    30.13R VSB 1/2 WCI  16
MONTAUK POINT    N/A     29  27  92 NW13G21   30.10R WCI  19
$$

NYZ052-065-067-051600-
HUDSON VALLEY

CITY           SKY/WX    TMP DP  RH WIND       PRES   REMARKS
WHITE PLAINS   SNOW      24  21  88 N8        30.10R VSB 1/2 WCI  15
NEWBURGH       PTSUNNY   27  14  59 VRB6      30.12S WCI  20
MONTGOMERY     CLOUDY    25   7  46 NW9       30.13R WCI  15
POUGHKEEPSIE   CLOUDY    26   8  46 N10       30.14R WCI  16
ALBANY         CLOUDY    21   4  47 NW13      30.18R WCI   9
$$

NJZ001-105-106-008-010-013-015-019>022-104-051600-
NEW JERSEY

CITY           SKY/WX    TMP DP  RH WIND       PRES   REMARKS
NEWARK/LIBERTY LGT SNOW  28  26  92 N21G26    30.14R VSB 3/4 WCI  15
TETERBORO      SNOW      27  25  93 N5        30.13R VSB 1/2 WCI  21
CALDWELL       LGT SNOW  26  22  84 N9        30.15R VSB 3/4 WCI  17
MORRISTOWN     LGT SNOW  28  27  93 N8G15     30.14R VSB 3/4 WCI  20
SOMERVILLE     SNOW      28  24  85 N8        30.13R VSB 1/2 WCI  20
SUSSEX         LGT SNOW  22  14  71 N6        30.15R VSB 3/4 WCI  14
ANDOVER          N/A     21  18  88 N6        30.14R WCI  13
TRENTON        SNOW      29  26  89 N12G18    30.12R VSB 1/2 WCI  19
MILLVILLE      LGT SNOW  33  32  96 N10G20    30.09S WCI  25
ATLANTIC CITY  LGT SNOW  32  31  96 N9        30.08F VSB 1   WCI  24
WRIGHTSTOWN    LGT SNOW  31  31  99 NW13      30.09R VSB 3/4 WCI  21
TOMS RIVER     CLOUDY    34  30  86 N9G16     30.12R VSB 1   WCI  26
BELMAR         CLOUDY    30  25  80 N16       30.10R VSB 3/4 WCI  19
$$

PAZ047>061-062-071-051600-
EASTERN PENNSYLVANIA

CITY           SKY/WX    TMP DP  RH WIND       PRES   REMARKS
PHILADELPHIA   SNOW      30  28  92 N15       30.13R VSB 1/2 WCI  19
ALLENTOWN      SNOW      23  19  85 NW15      30.16R VSB 1/2 WCI  10
SCRANTON       CLOUDY    19   4  51 N12       30.16R WCI   7
$$

CTZ002-004>006-009-010-012-RIZ004-006-007-MAZ004-011-015-051600-
SOUTHERN NEW ENGLAND
 IN CT

CITY           SKY/WX    TMP DP  RH WIND       PRES   REMARKS
BRADLEY INTL   CLOUDY    30   9  41 NW13      30.09R WCI  20
HARTFORD       CLOUDY    29   9  43 NW12G24   30.11R WCI  19
DANBURY        LGT SNOW  22  15  75 N9        30.12S WCI  12
WTRBRY/OXFORD  LGT SNOW N/A N/A N/A N7        30.09S FOG
BRIDGEPORT     LGT SNOW  25  22  88 N15       30.14R FOG     WCI  13
MERIDEN        LGT SNOW  25  19  78 N8        30.13R WCI  16
NEW HAVEN      LGT SNOW  25  22  88 N12       30.12S VSB 1   WCI  14
CHESTER        SNOW      27  25  93 NW9       30.08R VSB 1/2 WCI  17
GROTON         SNOW      26  25  96 NW10      30.08R VSB 1/2 WCI  16
WILLIMANTIC    LGT SNOW  27  21  78 NW6       30.08R VSB 3/4 WCI  20

 IN RI

CITY           SKY/WX    TMP DP  RH WIND       PRES   REMARKS
PROVIDENCE     LGT SNOW  28  25  88 N8        30.08R VSB 3/4 WCI  20
BLOCK ISLAND   CLOUDY    30  27  86 N13       30.06R VSB 3/4 WCI  20
WESTERLY       LGT SNOW  29  27  92 N10       30.08R VSB 3/4 WCI  20

 IN MA

CITY           SKY/WX    TMP DP  RH WIND       PRES   REMARKS
BOSTON         CLOUDY    31   9  39 NW14      30.04R WCI  21
WORCESTER      CLOUDY    26   6  42 NW15      30.01R WCI  14
WESTFIELD      CLOUDY    27   9  46 W14       30.09R WCI  16
PROVINCETOWN   CLOUDY    28  23  80 NW17      30.06R WCI  16
NANTUCKET      LGT SNOW  31  29  92 N13       30.02R VSB 3/4 WCI  21
$$

ANZ330-335-338-340-345-350-353-355-051600-
COASTAL MARINE OBSERVATIONS


STATION/POSITION TIME  SKY/WX   TEMP    WIND        PRES    VSBY  WAVE
                                AIR SEA DIR/SP/G                  HT/PER
                 (UTC)          (F)     (DEG/KT/KT) (MB)    (MI)  (FT/S)
NY HARB ENTRANCE 1500            30 38   10/ 21/ 23 1019.0          3/ 8
4S FIRE IS       1500               32                N/A           3/ 7
20S FIRE ISLAND  1400               36              1018.8          3/ 9
23SW MTP         1500                                 N/A           4/ 9
HUDSON CANYON    NOT AVBL
EXECUTION ROCKS  NOT AVBL
WESTERN LI SOUND NOT AVBL
CENTRAL LI SOUND NOT AVBL
EASTERN LI SOUND NOT AVBL
ROBBINS REEF     1500            28     360/ 12/ 14 1019.3
$$


>>>>>>>>>>>>>>>>>>>>>>>>>>>> KEY <<<<<<<<<<<<<<<<<<<<<<<<<<<
>                                                          <
>     SKY/WX - SKY CONDITION/PRESENT WEATHER               <
>     TMP    - TEMPERATURE IN FAHRENHEIT                   <
>     DP     - DEWPOINT IN FAHRENHEIT                      <
>     RH     - RELATIVE HUMIDITY IN PERCENT                <
>     WIND   - DIRECTION AND SPEED IN MPH                  <
>     PRES   - MEAN SEA LEVEL PRESSURE IN INCHES OF HG     <
>     WCI    - WIND CHILL INDEX                            <
>     VSB    - VISIBILITY IN MILES                         <
>     HX     - HEAT INDEX                                  <
>     TC     - TEMPERATURE IN CELSIUS                      <
>     VRB    - VARIABLE WIND DIRECTION                     <
>                                                          <
>>>>>>>>>>>>>>>>>>>>>>>>>>>> KEY <<<<<<<<<<<<<<<<<<<<<<<<<<<




USA.gov is the U.S. government's official web portal to all federal, state and local government web resources and services.